Regional Weather Roundup
Issued by NWS

Home | Current Version | Previous Version | Graphics & Text | Print | Product List | Glossary On
Versions: 1 2 3 4 5 6 7 8 9 10 11 12 13 14 15 16 17 18 19 20 21 22 23 24 25 26 27 28 29 30 31 32 33 34 35 36 37 38 39 40 41 42 43 44 45 46 47 48 49 50
000
ASUS43 KMKX 280021
RWRWI

WISCONSIN REGIONAL WEATHER ROUNDUP
NATIONAL WEATHER SERVICE MILWAUKEE/SULLIVAN WI
700 PM CDT THU JUL 27 2017

NOTE: "FAIR" INDICATES FEW OR NO CLOUDS BELOW 12,000 FEET WITH NO
SIGNIFICANT WEATHER AND/OR OBSTRUCTIONS TO VISIBILITY.

WIZ001-002-006>008-014>016-023>028-280100-
NORTHWEST WISCONSIN

CITY           SKY/WX    TMP DP  RH WIND       PRES   REMARKS
SUPERIOR ARPT  NOT AVBL
ASHLAND        MOSUNNY   72  60  66 NE10      30.07S
6HR MIN TEMP:  72; 6HR MAX TEMP:  81;

HAYWARD        SUNNY     77  57  50 NE8       30.05S
6HR MIN TEMP:  77; 6HR MAX TEMP:  82;

SIREN          PTSUNNY   80  56  43 NE5       30.05R HX  81
6HR MIN TEMP:  78; 6HR MAX TEMP:  82;

CUMBERLAND     MOSUNNY   75  55  50 NE5       30.05S
RICE LAKE      SUNNY     79  58  47 N6        30.05R HX  80
6HR MIN TEMP:  78; 6HR MAX TEMP:  83;

CHETEK         SUNNY     80  59  48 N5        30.03S HX  80
6HR MIN TEMP:  79; 6HR MAX TEMP:  82;

LADYSMITH      SUNNY     80  60  50 N5        30.04F HX  80
6HR MIN TEMP:  78; 6HR MAX TEMP:  82;

EAU CLAIRE     MOSUNNY   81  61  50 N7        30.00F HX  82
6HR MIN TEMP:  81; 6HR MAX TEMP:  85;

MENOMONIE      MOSUNNY   81  57  44 N7        30.02S HX  81
6HR MIN TEMP:  78; 6HR MAX TEMP:  83;

NEW RICHMOND   SUNNY     79  57  46 NE6       30.03S HX  80
6HR MIN TEMP:  78; 6HR MAX TEMP:  82;

OSCEOLA        SUNNY     81  57  44 N5        30.05S HX  81
6HR MIN TEMP:  80; 6HR MAX TEMP:  83;

$$

WIZ003>005-009-010-017-018-280100-
NORTH CENTRAL WISCONSIN

CITY           SKY/WX    TMP DP  RH WIND       PRES   REMARKS
MANITOWISH WTR MOSUNNY   74  61  63 NE5       30.06S
6HR MIN TEMP:  74; 6HR MAX TEMP:  81;

ARBOR VITAE    CLOUDY    77  60  54 NE7       30.06R
6HR MIN TEMP:  77; 6HR MAX TEMP:  80;

WOODRUFF       CLOUDY    77  60  54 NE7       30.06R
6HR MIN TEMP:  77; 6HR MAX TEMP:  80;

RHINELANDER    PTSUNNY   75  59  57 NE3       30.06S
6HR MIN TEMP:  75; 6HR MAX TEMP:  80;

EAGLE RIVER    CLOUDY    73  58  59 E3        30.06S
6HR MIN TEMP:  72; 6HR MAX TEMP:  79;

LAND O LAKES   CLOUDY    73  52  49 NE6       30.09S
6HR MIN TEMP:  73; 6HR MAX TEMP:  80;

PHILLIPS       MOSUNNY   76  62  61 N6        30.04S
6HR MIN TEMP:  75; 6HR MAX TEMP:  80;

TOMAHAWK         N/A     76  60  57 CALM      30.05S
6HR MIN TEMP:  73; 6HR MAX TEMP:  80;

MEDFORD        PTSUNNY   76  61  58 CALM      30.02F
6HR MIN TEMP:  74; 6HR MAX TEMP:  80;

MERRILL        MOSUNNY   73  61  64 CALM      30.04S
$$

WIZ029-030-035-036-043>047-280100-
CENTRAL WISCONSIN

CITY           SKY/WX    TMP DP  RH WIND       PRES   REMARKS
WAUSAU         PTSUNNY   76  60  57 NE8       30.01S
6HR MIN TEMP:  76; 6HR MAX TEMP:  81;

MOSINEE        PTSUNNY   77  61  57 CALM      30.03
MARSHFIELD     PTSUNNY   81  57  43 VRB5      30.01S HX  81
6HR MIN TEMP:  77; 6HR MAX TEMP:  83;

STEVENS POINT  PTSUNNY   76  59  55 SE3       30.02S
6HR MIN TEMP:  76; 6HR MAX TEMP:  80;

WAUPACA        MOSUNNY   80  57  46 SE5       30.01S HX  80
6HR MIN TEMP:  80; 6HR MAX TEMP:  85;

WAUTOMA        PTSUNNY   78  59  51 E6        30.01S
6HR MIN TEMP:  78; 6HR MAX TEMP:  83;

WISC RAPIDS    CLOUDY    79  60  52 E6        30.02S HX  80
6HR MIN TEMP:  79; 6HR MAX TEMP:  85;

CAMP DOUGLAS   SUNNY     79  64  59 NE6       29.99S HX  81
6HR MIN TEMP:  78; 6HR MAX TEMP:  84;

$$

WIZ011>013-019>022-031-037>040-048>050-280100-
NORTHEAST WISCONSIN

CITY           SKY/WX    TMP DP  RH WIND       PRES   REMARKS
ANTIGO         MOSUNNY   73  62  68 E3        30.05S
6HR MIN TEMP:  71; 6HR MAX TEMP:  78;

SHAWANO        PTSUNNY   76  63  63 SE7       30.01R
6HR MIN TEMP:  77; 6HR MAX TEMP:  84;

OCONTO         MOSUNNY   73  61  65 E6        30.01S
6HR MIN TEMP:  73; 6HR MAX TEMP:  78;

STURGEON BAY     N/A     73  58  59 E7        30.02R
6HR MIN TEMP:  73; 6HR MAX TEMP:  78;

GREEN BAY      MOSUNNY   75  62  64 NE9       30.00F
6HR MIN TEMP:  75; 6HR MAX TEMP:  80;

MANITOWOC      SUNNY     72  59  63 NE7       30.01R
6HR MIN TEMP:  72; 6HR MAX TEMP:  77;

APPLETON       PTSUNNY   79  54  41 NE9       30.00S
CLINTONVILLE   MOSUNNY  N/A N/A N/A E3        30.01S
OSHKOSH        SUNNY     77  58  51 E6        30.00S
6HR MIN TEMP:  77; 6HR MAX TEMP:  81;

$$

WIZ032>034-041-042-053>061-280100-
SOUTHWEST WISCONSIN

CITY           SKY/WX    TMP DP  RH WIND       PRES   REMARKS
LA CROSSE      SUNNY     84  64  50 N9        29.98S HX  85
6HR MIN TEMP:  82; 6HR MAX TEMP:  87;

SPARTA         MOSUNNY   77  64  63 CALM      29.99F
6HR MIN TEMP:  79; 6HR MAX TEMP:  84;

VIROQUA        PTSUNNY   78  66  66 N3        30.01S HX  80
6HR MIN TEMP:  75; 6HR MAX TEMP:  82;

BOSCOBEL       SUNNY     84  62  47 NE3       29.97F HX  85
6HR MIN TEMP:  83; 6HR MAX TEMP:  86;

PRAIRIE DU CHI SUNNY     81  60  49 NE5       29.97S HX  81
6HR MIN TEMP:  81; 6HR MAX TEMP:  83;

PLATTEVILLE    SUNNY     80  63  55 NE6       29.99S HX  81
6HR MIN TEMP:  79; 6HR MAX TEMP:  82;

$$

WIZ056-057-062-063-064-067-068-280100-
SOUTH CENTRAL WISCONSIN

CITY           SKY/WX    TMP DP  RH WIND       PRES   REMARKS
REEDSBURG      MOSUNNY   76  62  61 E5        29.99S
6HR MIN TEMP:  77; 6HR MAX TEMP:  82;

BARABOO/DELLS  PTSUNNY   77  59  53 E3        30.00S
6HR MIN TEMP:  77; 6HR MAX TEMP:  83;

LONE ROCK      SUNNY     80  65  59 E7        29.97S HX  82
6HR MIN TEMP:  80; 6HR MAX TEMP:  84;

MINERAL POINT  SUNNY     81  61  50 NE5       29.99S HX  81
MADISON        PTSUNNY   78  62  57 NE9       29.98F HX  80
6HR MIN TEMP:  78; 6HR MAX TEMP:  83;

MIDDLETON      SUNNY     78  62  57 NE7       29.99F
6HR MIN TEMP:  79; 6HR MAX TEMP:  83;

WATERTOWN      SUNNY     76  59  56 NE8       29.98S
6HR MIN TEMP:  76; 6HR MAX TEMP:  81;

MONROE         SUNNY     77  61  57 NE10      29.98S
JANESVILLE     MOSUNNY   79  59  50 NE9       29.96F HX  80
$$

WIZ051-052-058>065-066-070>072-280100-
SOUTHEAST WISCONSIN

CITY           SKY/WX    TMP DP  RH WIND       PRES   REMARKS
MILWAUKEE      PTSUNNY   74  55  51 N16G26    29.98S
6HR MIN TEMP:  74; 6HR MAX TEMP:  78;

WAUKESHA       SUNNY     73  48  40 N13G21    30.00S
MILWAUKEE/TIMM SUNNY     75  46  35 NE14G20   30.00S
RACINE         SUNNY     72  61  68 N17G28    29.98F
6HR MIN TEMP:  72; 6HR MAX TEMP:  77;

KENOSHA        SUNNY     74  53  48 N14G23    29.97S
6HR MIN TEMP:  74; 6HR MAX TEMP:  81;

FOND DU LAC    SUNNY     77  54  44 E7        30.00S
6HR MIN TEMP:  77; 6HR MAX TEMP:  82; 6HR PCP: TRACE;

SHEBOYGAN      SUNNY     73  62  68 NE12      30.00S
6HR MIN TEMP:  73; 6HR MAX TEMP:  78;

WEST BEND      SUNNY     72  54  53 NE12      30.00S
JUNEAU         SUNNY     74  54  48 NE6       30.01S
6HR MIN TEMP:  74; 6HR MAX TEMP:  80;

$$

LSZ147-162-280100-
LAKE SUPERIOR

STATION/POSITION TIME  TEMP    WIND        PRES    WAVE
                       AIR SEA DIR/SP/G            HT/PER
                 (UTC) (F)     (DEG/KT/KT) (MB)    (FT/S)
W MID LAKE BUOY  2350   58 55   70/  6/  6 1017.9F   1
DEVILS ISLAND    0000   63      10/  8/  9 1018.8R
SAXON HARBOR     2330   67     330/  4/  5 1017.9R
$$

LMZ867-665-643>646-280100-
LAKE MICHIGAN

STATION/POSITION TIME  TEMP    WIND        PRES    WAVE
                       AIR SEA DIR/SP/G            HT/PER
                 (UTC) (F)     (DEG/KT/KT) (MB)    (FT/S)
CHAMBERS ISLAND  2340   72      30/ 12/ 14 1015.9R
S GREEN BAY BUOY 0000   73 72   60/ 12/ 16 1015.9
N MID LAKE BUOY  2350   70 67   20/ 14/ 16 1016.5F   1
NORTHPORT PIER   2340



USA.gov is the U.S. government's official web portal to all federal, state and local government web resources and services.